Year,Month,Day,Hour,Minute,Value (Times are PST for windspeed in km/hr)
2016,08,03,00,00,1.50
2016,08,03,00,01,2.80
2016,08,03,00,02,2.70
2016,08,03,00,03,3.50
2016,08,03,00,04,0.80
2016,08,03,00,05,1.20
2016,08,03,00,06,0.60
2016,08,03,00,07,0.20
2016,08,03,00,08,2.00
2016,08,03,00,09,0.10
2016,08,03,00,10,0.10
2016,08,03,00,11,0.10
2016,08,03,00,12,0.50
2016,08,03,00,13,0.80
2016,08,03,00,14,1.90
2016,08,03,00,15,1.90
2016,08,03,00,16,1.00
2016,08,03,00,17,1.60
2016,08,03,00,18,2.60
2016,08,03,00,19,4.20
2016,08,03,00,20,2.80
2016,08,03,00,21,0.70
2016,08,03,00,22,1.10
2016,08,03,00,23,0.90
2016,08,03,00,24,1.70
2016,08,03,00,25,2.00
2016,08,03,00,26,1.50
2016,08,03,00,27,4.60
2016,08,03,00,28,3.40
2016,08,03,00,29,4.20
2016,08,03,00,30,4.10
2016,08,03,00,31,3.20
2016,08,03,00,32,4.30
2016,08,03,00,33,8.00
2016,08,03,00,34,4.60
2016,08,03,00,35,7.80
2016,08,03,00,36,5.10
2016,08,03,00,37,5.40
2016,08,03,00,38,4.40
2016,08,03,00,39,2.30
2016,08,03,00,40,3.40
2016,08,03,00,41,3.20
2016,08,03,00,42,0.90
2016,08,03,00,43,1.60
2016,08,03,00,44,3.50
2016,08,03,00,45,1.10
2016,08,03,00,46,0.70
2016,08,03,00,47,4.60
2016,08,03,00,48,4.70
2016,08,03,00,49,3.30
2016,08,03,00,50,5.20
2016,08,03,00,51,4.50
2016,08,03,00,52,4.60
2016,08,03,00,53,2.60
2016,08,03,00,54,2.90
2016,08,03,00,55,4.30
2016,08,03,00,56,6.90
2016,08,03,00,57,5.20
2016,08,03,00,58,5.90
2016,08,03,00,59,7.10
2016,08,03,01,00,5.10
2016,08,03,01,01,4.40
2016,08,03,01,02,5.10
2016,08,03,01,03,4.00
2016,08,03,01,04,2.80
2016,08,03,01,05,4.20
2016,08,03,01,06,5.10
2016,08,03,01,07,4.30
2016,08,03,01,08,3.70
2016,08,03,01,09,5.00
2016,08,03,01,10,5.10
2016,08,03,01,11,4.00
2016,08,03,01,12,2.90
2016,08,03,01,13,3.70
2016,08,03,01,14,4.70
2016,08,03,01,15,4.10
2016,08,03,01,16,4.20
2016,08,03,01,17,4.70
2016,08,03,01,18,4.40
2016,08,03,01,19,2.40
2016,08,03,01,20,0.80
2016,08,03,01,21,3.50
2016,08,03,01,22,4.10
2016,08,03,01,23,2.80
2016,08,03,01,24,1.80
2016,08,03,01,25,2.90
2016,08,03,01,26,5.00
2016,08,03,01,27,5.10
2016,08,03,01,28,3.90
2016,08,03,01,29,3.90
2016,08,03,01,30,4.60
2016,08,03,01,31,5.00
2016,08,03,01,32,2.90
2016,08,03,01,33,1.20
2016,08,03,01,34,1.60
2016,08,03,01,35,1.90
2016,08,03,01,36,1.20
2016,08,03,01,37,1.50
2016,08,03,01,38,1.90
2016,08,03,01,39,2.60
2016,08,03,01,40,3.10
2016,08,03,01,41,2.60
2016,08,03,01,42,0.60
2016,08,03,01,43,2.00
2016,08,03,01,44,2.60
2016,08,03,01,45,2.70
2016,08,03,01,46,2.80
2016,08,03,01,47,3.10
2016,08,03,01,48,2.10
2016,08,03,01,49,2.30
2016,08,03,01,50,1.60
2016,08,03,01,51,0.00
2016,08,03,01,52,0.60
2016,08,03,01,53,0.80
2016,08,03,01,54,0.20
2016,08,03,01,55,0.00
2016,08,03,01,56,0.00
2016,08,03,01,57,0.00
2016,08,03,01,58,0.30
2016,08,03,01,59,0.60
2016,08,03,02,00,0.00
2016,08,03,02,01,0.00
2016,08,03,02,02,0.00
2016,08,03,02,03,0.00
2016,08,03,02,04,0.00
2016,08,03,02,05,0.00
2016,08,03,02,06,0.00
2016,08,03,02,07,0.00
2016,08,03,02,08,0.00
2016,08,03,02,09,0.00
2016,08,03,02,10,0.00
2016,08,03,02,11,0.00
2016,08,03,02,12,0.00
2016,08,03,02,13,0.00
2016,08,03,02,14,0.00
2016,08,03,02,15,0.00
2016,08,03,02,16,0.00
2016,08,03,02,17,0.00
2016,08,03,02,18,0.00
2016,08,03,02,19,0.00
2016,08,03,02,20,0.00
2016,08,03,02,21,0.00
2016,08,03,02,22,0.00
2016,08,03,02,23,0.00
2016,08,03,02,24,0.00
2016,08,03,02,25,1.20
2016,08,03,02,26,1.80
2016,08,03,02,27,0.50
2016,08,03,02,28,0.20
2016,08,03,02,29,0.30
2016,08,03,02,30,0.20
2016,08,03,02,31,0.20
2016,08,03,02,32,0.00
2016,08,03,02,33,0.00
2016,08,03,02,34,0.00
2016,08,03,02,35,0.30
2016,08,03,02,36,0.50
2016,08,03,02,37,1.40
2016,08,03,02,38,1.50
2016,08,03,02,39,1.50
2016,08,03,02,40,1.30
2016,08,03,02,41,1.20
2016,08,03,02,42,1.20
2016,08,03,02,43,0.80
2016,08,03,02,44,0.00
2016,08,03,02,45,0.00
2016,08,03,02,46,0.00
2016,08,03,02,47,0.00
2016,08,03,02,48,0.00
2016,08,03,02,49,0.00
2016,08,03,02,50,0.20
2016,08,03,02,51,0.20
2016,08,03,02,52,0.00
2016,08,03,02,53,0.00
2016,08,03,02,54,0.00
2016,08,03,02,55,0.00
2016,08,03,02,56,0.00
2016,08,03,02,57,0.00
2016,08,03,02,58,0.00
2016,08,03,02,59,0.00
2016,08,03,03,00,0.00
2016,08,03,03,01,0.20
2016,08,03,03,02,0.00
2016,08,03,03,03,0.00
2016,08,03,03,04,0.00
2016,08,03,03,05,0.10
2016,08,03,03,06,0.10
2016,08,03,03,07,0.10
2016,08,03,03,08,0.00
2016,08,03,03,09,0.00
2016,08,03,03,10,0.00
2016,08,03,03,11,0.00
2016,08,03,03,12,0.00
2016,08,03,03,13,0.00
2016,08,03,03,14,0.00
2016,08,03,03,15,0.00
2016,08,03,03,16,0.00
2016,08,03,03,17,0.00
2016,08,03,03,18,0.00
2016,08,03,03,19,0.00
2016,08,03,03,20,0.00
2016,08,03,03,21,0.00
2016,08,03,03,22,0.00
2016,08,03,03,23,0.00
2016,08,03,03,24,0.00
2016,08,03,03,25,0.00
2016,08,03,03,26,0.10
2016,08,03,03,27,1.10
2016,08,03,03,28,1.50
2016,08,03,03,29,2.80
2016,08,03,03,30,2.20
2016,08,03,03,31,2.10
2016,08,03,03,32,2.60
2016,08,03,03,33,2.90
2016,08,03,03,34,2.90
2016,08,03,03,35,3.10
2016,08,03,03,36,3.00
2016,08,03,03,37,2.30
2016,08,03,03,38,1.30
2016,08,03,03,39,1.50
2016,08,03,03,40,2.00
2016,08,03,03,41,1.60
2016,08,03,03,42,2.90
2016,08,03,03,43,1.50
2016,08,03,03,44,2.80
2016,08,03,03,45,2.30
2016,08,03,03,46,1.60
2016,08,03,03,47,2.40
2016,08,03,03,48,1.80
2016,08,03,03,49,2.30
2016,08,03,03,50,1.50
2016,08,03,03,51,0.90
2016,08,03,03,52,1.30
2016,08,03,03,53,1.50
2016,08,03,03,54,1.50
2016,08,03,03,55,0.50
2016,08,03,03,56,0.00
2016,08,03,03,57,0.00
2016,08,03,03,58,0.00
2016,08,03,03,59,0.00
2016,08,03,04,00,1.00
2016,08,03,04,01,2.10
2016,08,03,04,02,1.70
2016,08,03,04,03,1.90
2016,08,03,04,04,1.30
2016,08,03,04,08,0.50
2016,08,03,04,09,0.60
2016,08,03,04,10,0.10
2016,08,03,04,11,0.10
2016,08,03,04,12,0.90
2016,08,03,04,13,0.80
2016,08,03,04,14,1.00
2016,08,03,04,15,1.10
2016,08,03,04,16,0.90
2016,08,03,04,17,1.50
2016,08,03,04,18,1.80
2016,08,03,04,19,1.40
2016,08,03,04,20,4.10
2016,08,03,04,21,2.10
2016,08,03,04,22,1.80
2016,08,03,04,23,0.00
2016,08,03,04,24,0.40
2016,08,03,04,25,1.50
2016,08,03,04,26,1.90
2016,08,03,04,27,2.00
2016,08,03,04,28,2.00
2016,08,03,04,29,1.90
2016,08,03,04,30,0.90
2016,08,03,04,31,0.80
2016,08,03,04,32,0.70
2016,08,03,04,33,1.40
2016,08,03,04,34,1.50
2016,08,03,04,35,1.90
2016,08,03,04,36,1.10
2016,08,03,04,37,0.80
2016,08,03,04,38,0.80
2016,08,03,04,39,0.60
2016,08,03,04,40,0.80
2016,08,03,04,41,0.70
2016,08,03,04,42,0.30
2016,08,03,04,43,0.00
2016,08,03,04,44,0.10
2016,08,03,04,45,0.20
2016,08,03,04,46,0.30
2016,08,03,04,47,0.50
2016,08,03,04,48,2.50
2016,08,03,04,49,2.60
2016,08,03,04,50,1.10
2016,08,03,04,51,0.70
2016,08,03,04,52,0.80
2016,08,03,04,53,1.00
2016,08,03,04,54,1.30
2016,08,03,04,55,0.80
2016,08,03,04,56,1.40
2016,08,03,04,57,1.80
2016,08,03,04,58,1.00
2016,08,03,04,59,2.00
2016,08,03,05,00,3.60
2016,08,03,05,01,2.10
2016,08,03,05,02,0.10
2016,08,03,05,03,0.00
2016,08,03,05,04,0.00
2016,08,03,05,05,0.10
2016,08,03,05,06,0.40
2016,08,03,05,07,0.10
2016,08,03,05,08,0.30
2016,08,03,05,09,0.70
2016,08,03,05,10,1.10
2016,08,03,05,11,0.60
2016,08,03,05,12,0.20
2016,08,03,05,13,0.00
2016,08,03,05,14,0.00
2016,08,03,05,15,0.00
2016,08,03,05,16,0.00
2016,08,03,05,17,0.20
2016,08,03,05,18,0.10
2016,08,03,05,19,0.50
2016,08,03,05,20,0.00
2016,08,03,05,21,0.00
2016,08,03,05,22,0.00
2016,08,03,05,23,0.00
2016,08,03,05,24,0.00
2016,08,03,05,25,0.00
2016,08,03,05,26,0.00
2016,08,03,05,27,0.00
2016,08,03,05,28,0.00
2016,08,03,05,29,0.00
2016,08,03,05,30,0.00
2016,08,03,05,31,0.00
2016,08,03,05,32,0.00
2016,08,03,05,33,0.00
2016,08,03,05,34,0.00
2016,08,03,05,35,0.00
2016,08,03,05,36,0.00
2016,08,03,05,37,0.00
2016,08,03,05,38,0.00
2016,08,03,05,39,0.00
2016,08,03,05,40,0.00
2016,08,03,05,41,0.00
2016,08,03,05,42,0.00
2016,08,03,05,43,0.00
2016,08,03,05,44,0.00
2016,08,03,05,45,0.00
2016,08,03,05,46,0.00
2016,08,03,05,47,0.00
2016,08,03,05,48,0.00
2016,08,03,05,49,0.00
2016,08,03,05,50,0.00
2016,08,03,05,51,0.00
2016,08,03,05,52,0.00
2016,08,03,05,53,0.00
2016,08,03,05,54,0.20
2016,08,03,05,55,0.00
2016,08,03,05,56,0.00
2016,08,03,05,57,0.00
2016,08,03,05,58,0.00
2016,08,03,05,59,0.00
2016,08,03,06,00,0.00
2016,08,03,06,01,0.00
2016,08,03,06,02,0.00
2016,08,03,06,03,0.00
2016,08,03,06,04,0.90
2016,08,03,06,05,1.50
2016,08,03,06,06,2.00
2016,08,03,06,07,1.30
2016,08,03,06,08,0.20
2016,08,03,06,09,0.50
2016,08,03,06,10,0.50
2016,08,03,06,11,0.40
2016,08,03,06,12,0.00
2016,08,03,06,13,0.10
2016,08,03,06,14,0.00
2016,08,03,06,15,0.20
2016,08,03,06,16,0.10
2016,08,03,06,17,0.10
2016,08,03,06,18,0.00
2016,08,03,06,19,0.00
2016,08,03,06,20,0.00
2016,08,03,06,21,0.00
2016,08,03,06,22,0.00
2016,08,03,06,23,0.00
2016,08,03,06,24,0.00
2016,08,03,06,25,0.00
2016,08,03,06,26,0.00
2016,08,03,06,27,0.00
2016,08,03,06,28,0.00
2016,08,03,06,29,0.00
2016,08,03,06,30,0.00
2016,08,03,06,31,0.00
2016,08,03,06,32,0.00
2016,08,03,06,33,0.00
2016,08,03,06,34,0.00
2016,08,03,06,35,0.00
2016,08,03,06,36,0.50
2016,08,03,06,37,0.00
2016,08,03,06,38,0.00
2016,08,03,06,39,0.00
2016,08,03,06,40,0.00
2016,08,03,06,41,0.00
2016,08,03,06,42,0.00
2016,08,03,06,43,0.00
2016,08,03,06,44,0.00
2016,08,03,06,45,0.00
2016,08,03,06,46,0.00
2016,08,03,06,47,0.00
2016,08,03,06,48,0.00
2016,08,03,06,49,0.00
2016,08,03,06,50,0.00
2016,08,03,06,51,0.00
2016,08,03,06,52,0.00
2016,08,03,06,53,0.10
2016,08,03,06,54,0.00
2016,08,03,06,55,0.00
2016,08,03,06,56,0.10
2016,08,03,06,57,0.60
2016,08,03,06,58,1.50
2016,08,03,06,59,0.00
2016,08,03,07,00,0.00
2016,08,03,07,01,0.20
2016,08,03,07,02,0.00
2016,08,03,07,03,0.20
2016,08,03,07,04,0.00
2016,08,03,07,05,0.00
2016,08,03,07,06,0.00
2016,08,03,07,07,0.00
2016,08,03,07,08,0.00
2016,08,03,07,09,0.00
2016,08,03,07,10,0.00
2016,08,03,07,11,0.00
2016,08,03,07,12,0.00
2016,08,03,07,13,0.00
2016,08,03,07,14,0.00
2016,08,03,07,15,0.00
2016,08,03,07,16,0.00
2016,08,03,07,17,0.00
2016,08,03,07,18,0.00
2016,08,03,07,19,0.00
2016,08,03,07,20,0.00
2016,08,03,07,21,0.00
2016,08,03,07,22,0.00
2016,08,03,07,23,0.10
2016,08,03,07,24,0.00
2016,08,03,07,25,0.00
2016,08,03,07,26,0.00
2016,08,03,07,27,0.00
2016,08,03,07,28,0.00
2016,08,03,07,29,0.00
2016,08,03,07,30,0.20
2016,08,03,07,31,0.10
2016,08,03,07,32,0.30
2016,08,03,07,33,0.10
2016,08,03,07,34,0.00
2016,08,03,07,35,0.00
2016,08,03,07,36,0.00
2016,08,03,07,37,0.60
2016,08,03,07,38,0.40
2016,08,03,07,39,2.30
2016,08,03,07,40,1.90
2016,08,03,07,41,1.80
2016,08,03,07,42,0.20
2016,08,03,07,43,0.00
2016,08,03,07,44,0.00
2016,08,03,07,45,0.00
2016,08,03,07,46,0.00
2016,08,03,07,47,0.00
2016,08,03,07,48,1.10
2016,08,03,07,49,1.00
2016,08,03,07,50,1.80
2016,08,03,07,51,3.10
2016,08,03,07,52,2.90
2016,08,03,07,53,3.20
2016,08,03,07,54,3.40
2016,08,03,07,55,1.00
2016,08,03,07,56,1.20
2016,08,03,07,57,0.60
2016,08,03,07,58,0.60
2016,08,03,07,59,0.30
2016,08,03,08,00,0.00
2016,08,03,08,01,0.10
2016,08,03,08,02,0.60
2016,08,03,08,03,0.00
2016,08,03,08,04,0.20
2016,08,03,08,05,0.40
2016,08,03,08,06,0.60
2016,08,03,08,07,0.00
2016,08,03,08,08,0.40
2016,08,03,08,09,0.90
2016,08,03,08,10,0.20
2016,08,03,08,11,0.00
2016,08,03,08,12,0.80
2016,08,03,08,13,2.30
2016,08,03,08,14,1.90
2016,08,03,08,15,0.40
2016,08,03,08,16,0.50
2016,08,03,08,17,0.40
2016,08,03,08,18,0.00
2016,08,03,08,19,1.90
2016,08,03,08,20,1.20
2016,08,03,08,21,1.00
2016,08,03,08,22,0.00
2016,08,03,08,23,0.20
2016,08,03,08,24,0.00
2016,08,03,08,25,0.00
2016,08,03,08,26,0.20
2016,08,03,08,27,0.30
2016,08,03,08,28,0.30
2016,08,03,08,29,0.00
2016,08,03,08,30,0.70
2016,08,03,08,31,3.90
2016,08,03,08,32,2.40
2016,08,03,08,33,0.70
2016,08,03,08,34,1.30
2016,08,03,08,35,0.40
2016,08,03,08,36,0.00
2016,08,03,08,37,0.10
2016,08,03,08,38,0.00
2016,08,03,08,39,0.10
2016,08,03,08,40,0.20
2016,08,03,08,41,0.90
2016,08,03,08,42,0.80
2016,08,03,08,43,0.70
2016,08,03,08,44,0.80
2016,08,03,08,45,1.50
2016,08,03,08,46,2.80
2016,08,03,08,47,3.50
2016,08,03,08,48,1.20
2016,08,03,08,49,0.00
2016,08,03,08,50,1.30
2016,08,03,08,51,0.10
2016,08,03,08,52,3.30
2016,08,03,08,53,2.10
2016,08,03,08,54,1.90
2016,08,03,08,55,1.10
2016,08,03,08,56,1.70
2016,08,03,08,57,0.40
2016,08,03,08,58,1.40
2016,08,03,08,59,1.70
2016,08,03,09,00,0.20
2016,08,03,09,01,1.00
2016,08,03,09,02,1.00
2016,08,03,09,03,1.20
2016,08,03,09,04,3.80
2016,08,03,09,05,2.20
2016,08,03,09,06,3.40
2016,08,03,09,07,3.50
2016,08,03,09,08,1.50
2016,08,03,09,09,2.40
2016,08,03,09,10,1.50
2016,08,03,09,11,2.00
2016,08,03,09,12,3.10
2016,08,03,09,13,2.20
2016,08,03,09,14,1.20
2016,08,03,09,15,0.00
2016,08,03,09,16,0.00
2016,08,03,09,17,0.10
2016,08,03,09,18,0.30
2016,08,03,09,19,0.60
2016,08,03,09,20,2.10
2016,08,03,09,21,1.10
2016,08,03,09,22,1.20
2016,08,03,09,23,5.70
2016,08,03,09,24,3.80
2016,08,03,09,25,2.10
2016,08,03,09,26,4.70
2016,08,03,09,27,2.10
2016,08,03,09,28,4.50
2016,08,03,09,29,4.60
2016,08,03,09,30,2.20
2016,08,03,09,31,5.20
2016,08,03,09,32,5.60
2016,08,03,09,33,2.40
2016,08,03,09,34,3.20
2016,08,03,09,35,4.10
2016,08,03,09,36,4.20
2016,08,03,09,37,8.10
2016,08,03,09,38,2.70
2016,08,03,09,39,0.40
2016,08,03,09,40,4.80
2016,08,03,09,41,1.90
2016,08,03,09,42,2.10
2016,08,03,09,43,4.60
2016,08,03,09,44,5.70
2016,08,03,09,45,3.90
2016,08,03,09,46,1.40
2016,08,03,09,47,1.80
2016,08,03,09,48,3.80
2016,08,03,09,49,0.90
2016,08,03,09,50,3.10
2016,08,03,09,51,6.70
2016,08,03,09,52,5.90
2016,08,03,09,53,4.00
2016,08,03,09,54,4.40
2016,08,03,09,55,5.00
2016,08,03,09,56,4.40
2016,08,03,09,57,7.40
2016,08,03,09,58,4.70
2016,08,03,09,59,4.30
2016,08,03,10,00,5.70
2016,08,03,10,01,6.40
2016,08,03,10,02,4.50
2016,08,03,10,03,4.10
2016,08,03,10,04,2.10
2016,08,03,10,05,4.90
2016,08,03,10,06,6.70
2016,08,03,10,07,5.80
2016,08,03,10,08,7.70
2016,08,03,10,09,2.40
2016,08,03,10,10,6.00
2016,08,03,10,11,6.70
2016,08,03,10,12,7.60
2016,08,03,10,13,7.60
2016,08,03,10,14,8.50
2016,08,03,10,15,4.90
2016,08,03,10,16,5.10
2016,08,03,10,17,7.20
2016,08,03,10,18,7.60
2016,08,03,10,19,5.70
2016,08,03,10,20,6.40
2016,08,03,10,21,8.10
2016,08,03,10,22,7.40
2016,08,03,10,23,4.50
2016,08,03,10,24,5.10
2016,08,03,10,25,5.40
2016,08,03,10,26,1.50
2016,08,03,10,27,4.90
2016,08,03,10,28,8.30
2016,08,03,10,29,6.50
2016,08,03,10,30,10.20
2016,08,03,10,31,5.70
2016,08,03,10,32,6.50
2016,08,03,10,33,6.60
2016,08,03,10,34,8.00
2016,08,03,10,35,7.80
2016,08,03,10,36,8.10
2016,08,03,10,37,8.70
2016,08,03,10,38,8.50
2016,08,03,10,39,3.10
2016,08,03,10,40,4.00
2016,08,03,10,41,6.00
2016,08,03,10,42,3.70
2016,08,03,10,43,4.00
2016,08,03,10,44,3.50
2016,08,03,10,45,6.40
2016,08,03,10,46,3.50
2016,08,03,10,47,4.80
2016,08,03,10,48,4.30
2016,08,03,10,49,5.20
2016,08,03,10,50,4.70
2016,08,03,10,51,6.40
2016,08,03,10,52,8.30
2016,08,03,10,53,4.40
2016,08,03,10,54,7.40
2016,08,03,10,55,4.40
2016,08,03,10,56,4.30
2016,08,03,10,57,4.50
2016,08,03,10,58,8.50
2016,08,03,10,59,8.70
2016,08,03,11,00,8.30
2016,08,03,11,01,7.50
2016,08,03,11,02,5.10
2016,08,03,11,03,3.40
2016,08,03,11,04,0.20
2016,08,03,11,05,2.60
2016,08,03,11,06,2.30
2016,08,03,11,07,4.20
2016,08,03,11,08,3.50
2016,08,03,11,09,7.30
2016,08,03,11,10,5.20
2016,08,03,11,11,6.60
2016,08,03,11,12,5.70
2016,08,03,11,13,5.70
2016,08,03,11,14,4.80
2016,08,03,11,15,2.60
2016,08,03,11,16,4.80
2016,08,03,11,17,3.10
2016,08,03,11,18,3.20
2016,08,03,11,19,1.80
2016,08,03,11,20,4.80
2016,08,03,11,21,6.00
2016,08,03,11,22,3.50
2016,08,03,11,23,5.30
2016,08,03,11,24,5.00
2016,08,03,11,25,2.10
2016,08,03,11,26,2.50
2016,08,03,11,27,4.40
2016,08,03,11,28,3.50
2016,08,03,11,29,4.20
2016,08,03,11,30,7.40
2016,08,03,11,31,6.30
2016,08,03,11,32,4.40
2016,08,03,11,33,7.70
2016,08,03,11,34,8.30
2016,08,03,11,35,6.90
2016,08,03,11,36,2.30
2016,08,03,11,37,3.40
2016,08,03,11,38,1.80
2016,08,03,11,39,2.90
2016,08,03,11,40,2.00
2016,08,03,11,41,4.40
2016,08,03,11,42,5.70
2016,08,03,11,43,4.50
2016,08,03,11,44,5.70
2016,08,03,11,45,3.60
2016,08,03,11,46,1.80
2016,08,03,11,47,2.00
2016,08,03,11,48,2.50
2016,08,03,11,49,1.70
2016,08,03,11,50,2.40
2016,08,03,11,51,5.50
2016,08,03,11,52,5.30
2016,08,03,11,53,2.40
2016,08,03,11,54,6.50
2016,08,03,11,55,4.70
2016,08,03,11,56,6.20
2016,08,03,11,57,4.90
2016,08,03,11,58,4.50
2016,08,03,11,59,4.10
2016,08,03,12,00,6.70
2016,08,03,12,01,3.20
2016,08,03,12,02,5.30
2016,08,03,12,03,2.30
2016,08,03,12,04,4.10
2016,08,03,12,05,4.70
2016,08,03,12,06,1.80
2016,08,03,12,07,1.30
2016,08,03,12,08,2.90
2016,08,03,12,09,1.50
2016,08,03,12,10,1.10
2016,08,03,12,11,1.80
2016,08,03,12,12,0.60
2016,08,03,12,13,3.90
2016,08,03,12,14,5.40
2016,08,03,12,15,2.00
2016,08,03,12,16,5.90
2016,08,03,12,17,7.70
2016,08,03,12,18,7.10
2016,08,03,12,19,3.30
2016,08,03,12,20,4.80
2016,08,03,12,21,4.70
2016,08,03,12,22,6.60
2016,08,03,12,23,5.20
2016,08,03,12,24,7.70
2016,08,03,12,25,3.70
2016,08,03,12,26,4.20
2016,08,03,12,27,3.40
2016,08,03,12,28,0.80
2016,08,03,12,29,4.60
2016,08,03,12,30,4.30
2016,08,03,12,31,1.40
2016,08,03,12,32,3.80
2016,08,03,12,33,1.90
2016,08,03,12,34,2.10
2016,08,03,12,35,1.50
2016,08,03,12,36,0.70
2016,08,03,12,37,4.10
2016,08,03,12,38,1.50
2016,08,03,12,39,1.00
2016,08,03,12,40,3.90
2016,08,03,12,41,5.10
2016,08,03,12,42,1.00
2016,08,03,12,43,1.90
2016,08,03,12,44,1.90
2016,08,03,12,45,2.70
2016,08,03,12,46,5.00
2016,08,03,12,47,6.90
2016,08,03,12,48,3.90
2016,08,03,12,49,2.60
2016,08,03,12,50,2.80
2016,08,03,12,51,8.90
2016,08,03,12,52,8.40
2016,08,03,12,53,8.20
2016,08,03,12,54,6.60
2016,08,03,12,55,4.30
2016,08,03,12,56,4.40
2016,08,03,12,57,5.80
2016,08,03,12,58,3.40
2016,08,03,12,59,3.50
2016,08,03,13,00,2.50
2016,08,03,13,01,4.30
2016,08,03,13,02,1.30
2016,08,03,13,03,1.20
2016,08,03,13,04,0.20
2016,08,03,13,05,2.20
2016,08,03,13,06,5.20
2016,08,03,13,07,5.60
2016,08,03,13,08,5.60
2016,08,03,13,09,3.90
2016,08,03,13,10,3.80
2016,08,03,13,11,2.40
2016,08,03,13,12,5.40
2016,08,03,13,13,2.50
2016,08,03,13,14,0.60
2016,08,03,13,15,3.10
2016,08,03,13,16,3.80
2016,08,03,13,17,2.30
2016,08,03,13,18,3.20
2016,08,03,13,19,4.70
2016,08,03,13,20,7.20
2016,08,03,13,21,9.60
2016,08,03,13,22,8.30
2016,08,03,13,23,8.70
2016,08,03,13,24,10.70
2016,08,03,13,25,5.00
2016,08,03,13,26,2.30
2016,08,03,13,27,5.60
2016,08,03,13,28,2.20
2016,08,03,13,29,1.10
2016,08,03,13,30,2.20
2016,08,03,13,31,1.60
2016,08,03,13,32,4.00
2016,08,03,13,33,5.90
2016,08,03,13,34,5.60
2016,08,03,13,35,9.40
2016,08,03,13,36,5.70
2016,08,03,13,37,0.00
2016,08,03,13,38,1.50
2016,08,03,13,39,7.50
2016,08,03,13,40,7.80
2016,08,03,13,41,5.40
2016,08,03,13,42,5.60
2016,08,03,13,43,7.00
2016,08,03,13,44,4.40
2016,08,03,13,45,1.30
2016,08,03,13,46,1.80
2016,08,03,13,47,3.70
2016,08,03,13,48,8.00
2016,08,03,13,49,5.40
2016,08,03,13,50,10.00
2016,08,03,13,51,7.90
2016,08,03,13,52,6.30
2016,08,03,13,53,5.60
2016,08,03,13,54,5.40
2016,08,03,13,55,9.60
2016,08,03,13,56,10.00
2016,08,03,13,57,9.20
2016,08,03,13,58,10.10
2016,08,03,13,59,10.00
2016,08,03,14,00,8.70
2016,08,03,14,01,7.40
2016,08,03,14,02,7.50
2016,08,03,14,03,7.90
2016,08,03,14,04,7.40
2016,08,03,14,05,4.00
2016,08,03,14,06,5.00
2016,08,03,14,07,4.60
2016,08,03,14,08,5.70
2016,08,03,14,09,3.00
2016,08,03,14,10,1.70
2016,08,03,14,11,1.60
2016,08,03,14,12,3.50
2016,08,03,14,13,3.30
2016,08,03,14,14,3.00
2016,08,03,14,15,1.50
2016,08,03,14,16,3.00
2016,08,03,14,17,0.70
2016,08,03,14,18,2.00
2016,08,03,14,19,3.60
2016,08,03,14,20,4.70
2016,08,03,14,21,3.90
2016,08,03,14,22,5.10
2016,08,03,14,23,0.80
2016,08,03,14,24,0.50
2016,08,03,14,25,5.10
2016,08,03,14,26,3.40
2016,08,03,14,27,1.10
2016,08,03,14,28,3.90
2016,08,03,14,29,1.80
2016,08,03,14,30,2.70
2016,08,03,14,31,2.50
2016,08,03,14,32,3.30
2016,08,03,14,33,4.90
2016,08,03,14,34,5.40
2016,08,03,14,35,5.20
2016,08,03,14,36,5.50
2016,08,03,14,37,6.70
2016,08,03,14,38,4.70
2016,08,03,14,39,5.80
2016,08,03,14,40,5.00
2016,08,03,14,41,4.80
2016,08,03,14,42,2.60
2016,08,03,14,43,1.30
2016,08,03,14,44,1.60
2016,08,03,14,45,0.50
2016,08,03,14,46,0.80
2016,08,03,14,47,1.50
2016,08,03,14,48,3.10
2016,08,03,14,49,6.80
2016,08,03,14,50,6.10
2016,08,03,14,51,8.00
2016,08,03,14,52,5.40
2016,08,03,14,53,3.90
2016,08,03,14,54,2.00
2016,08,03,14,55,1.80
2016,08,03,14,56,2.70
2016,08,03,14,57,6.50
2016,08,03,14,58,5.90
2016,08,03,14,59,4.20
2016,08,03,15,00,4.50
2016,08,03,15,01,3.10
2016,08,03,15,02,2.30
2016,08,03,15,03,5.80
2016,08,03,15,04,2.50
2016,08,03,15,05,2.10
2016,08,03,15,06,4.10
2016,08,03,15,07,3.30
2016,08,03,15,08,4.70
2016,08,03,15,09,6.90
2016,08,03,15,10,10.00
2016,08,03,15,11,7.20
2016,08,03,15,12,4.70
2016,08,03,15,13,3.40
2016,08,03,15,14,3.70
2016,08,03,15,15,4.70
2016,08,03,15,16,3.70
2016,08,03,15,17,3.10
2016,08,03,15,18,2.70
2016,08,03,15,19,1.40
2016,08,03,15,20,3.40
2016,08,03,15,21,4.80
2016,08,03,15,22,7.10
2016,08,03,15,23,5.60
2016,08,03,15,24,3.60
2016,08,03,15,25,5.50
2016,08,03,15,26,7.40
2016,08,03,15,27,5.40
2016,08,03,15,28,0.70
2016,08,03,15,29,2.10
2016,08,03,15,30,1.90
2016,08,03,15,31,5.30
2016,08,03,15,32,4.90
2016,08,03,15,33,5.40
2016,08,03,15,34,0.50
2016,08,03,15,35,4.00
2016,08,03,15,36,4.40
2016,08,03,15,37,3.20
2016,08,03,15,38,5.90
2016,08,03,15,39,4.20
2016,08,03,15,40,4.40
2016,08,03,15,41,3.50
2016,08,03,15,42,4.20
2016,08,03,15,43,4.30
2016,08,03,15,44,5.90
2016,08,03,15,45,0.50
2016,08,03,15,46,1.90
2016,08,03,15,47,2.20
2016,08,03,15,48,2.70
2016,08,03,15,49,7.20
2016,08,03,15,50,8.90
2016,08,03,15,51,7.20
2016,08,03,15,52,4.70
2016,08,03,15,53,4.30
2016,08,03,15,54,3.80
2016,08,03,15,55,6.50
2016,08,03,15,56,5.80
2016,08,03,15,57,4.30
2016,08,03,15,58,4.90
2016,08,03,15,59,4.30
2016,08,03,16,00,4.10
2016,08,03,16,01,3.40
2016,08,03,16,02,3.80
2016,08,03,16,03,5.20
2016,08,03,16,04,2.30
2016,08,03,16,05,3.30
2016,08,03,16,06,2.80
2016,08,03,16,07,2.20
2016,08,03,16,08,3.10
2016,08,03,16,09,5.60
2016,08,03,16,10,5.10
2016,08,03,16,11,5.20
2016,08,03,16,12,4.60
2016,08,03,16,13,2.70
2016,08,03,16,14,6.70
2016,08,03,16,15,5.80
2016,08,03,16,16,5.20
2016,08,03,16,17,3.50
2016,08,03,16,18,2.50
2016,08,03,16,19,1.90
2016,08,03,16,20,0.80
2016,08,03,16,21,0.40
2016,08,03,16,22,3.20
2016,08,03,16,23,2.70
2016,08,03,16,24,1.30
2016,08,03,16,25,7.00
2016,08,03,16,26,6.70
2016,08,03,16,27,10.20
2016,08,03,16,28,8.40
2016,08,03,16,29,10.70
2016,08,03,16,30,6.50
2016,08,03,16,31,8.50
2016,08,03,16,32,2.00
2016,08,03,16,33,0.20
2016,08,03,16,34,3.80
2016,08,03,16,35,4.40
2016,08,03,16,36,1.10
2016,08,03,16,37,3.90
2016,08,03,16,38,5.80
2016,08,03,16,39,5.80
2016,08,03,16,40,2.80
2016,08,03,16,41,4.10
2016,08,03,16,42,1.10
2016,08,03,16,43,0.90
2016,08,03,16,44,2.90
2016,08,03,16,45,1.50
2016,08,03,16,46,1.20
2016,08,03,16,47,2.10
2016,08,03,16,48,2.70
2016,08,03,16,49,1.60
2016,08,03,16,50,2.10
2016,08,03,16,51,1.40
2016,08,03,16,52,1.40
2016,08,03,16,53,2.20
2016,08,03,16,54,0.90
2016,08,03,16,55,5.70
2016,08,03,16,56,5.00
2016,08,03,16,57,4.40
2016,08,03,16,58,3.40
2016,08,03,16,59,6.60
2016,08,03,17,00,2.50
2016,08,03,17,01,1.30
2016,08,03,17,02,6.80
2016,08,03,17,03,9.80
2016,08,03,17,04,6.80
2016,08,03,17,05,5.00
2016,08,03,17,06,3.90
2016,08,03,17,07,5.10
2016,08,03,17,08,1.90
2016,08,03,17,09,2.60
2016,08,03,17,10,6.80
2016,08,03,17,11,4.70
2016,08,03,17,12,4.90
2016,08,03,17,13,1.70
2016,08,03,17,14,2.30
2016,08,03,17,15,6.70
2016,08,03,17,16,5.70
2016,08,03,17,17,5.60
2016,08,03,17,18,3.20
2016,08,03,17,19,4.30
2016,08,03,17,20,4.90
2016,08,03,17,21,2.70
2016,08,03,17,22,4.10
2016,08,03,17,23,8.20
2016,08,03,17,24,6.40
2016,08,03,17,25,3.20
2016,08,03,17,26,3.50
2016,08,03,17,27,8.10
2016,08,03,17,28,7.70
2016,08,03,17,29,6.80
2016,08,03,17,30,4.40
2016,08,03,17,31,2.10
2016,08,03,17,32,4.60
2016,08,03,17,33,3.10
2016,08,03,17,34,0.30
2016,08,03,17,35,7.60
2016,08,03,17,36,7.40
2016,08,03,17,37,2.60
2016,08,03,17,38,9.00
2016,08,03,17,39,6.80
2016,08,03,17,40,7.40
2016,08,03,17,41,6.40
2016,08,03,17,42,5.00
2016,08,03,17,43,6.20
2016,08,03,17,44,4.10
2016,08,03,17,45,7.10
2016,08,03,17,46,8.90
2016,08,03,17,47,1.80
2016,08,03,17,48,4.30
2016,08,03,17,49,5.80
2016,08,03,17,50,5.30
2016,08,03,17,51,3.70
2016,08,03,17,52,6.60
2016,08,03,17,53,7.20
2016,08,03,17,54,5.20
2016,08,03,17,55,5.70
2016,08,03,17,56,6.80
2016,08,03,17,57,5.80
2016,08,03,17,58,3.50
2016,08,03,17,59,1.40
2016,08,03,18,00,1.50
2016,08,03,18,01,2.10
2016,08,03,18,02,1.40
2016,08,03,18,03,2.20
2016,08,03,18,04,2.90
2016,08,03,18,05,3.00
2016,08,03,18,06,5.00
2016,08,03,18,07,0.40
2016,08,03,18,08,4.60
2016,08,03,18,09,2.90